When you browse on this site, cookies collect data to enhance your experience and personalize the content and advertising you see.
Visit our Privacy Policy to learn more. By continuing to use the site, you agree to this use of cookies and data.
  • In United Kingdom
  • List of Countries
  • For 7 days
  • Water Temperature
  • Weather Map
  • Weather Widgets
  • user-avatar
    Login

    Hourly Weather Chakhansur

    Today, 19 September, Thursday

    Time Temperature Precipitation Wind Pressure Humidity
    00:00 +27°C° 0 mm 3 mps 715 mmHg 8%
    01:00 +27°C° 0 mm 3 mps 714 mmHg 9%
    02:00 +26°C° 0 mm 3 mps 714 mmHg 11%
    03:00 +24°C° 0 mm 3 mps 714 mmHg 13%
    04:00 +23°C° 0 mm 2 mps 714 mmHg 15%
    05:00 +24°C° 0 mm 3 mps 715 mmHg 15%
    06:00 +25°C° 0 mm 3 mps 716 mmHg 14%
    07:00 +26°C° 0 mm 3 mps 716 mmHg 13%
    08:00 +29°C° 0 mm 3 mps 717 mmHg 11%
    09:00 +33°C° 0 mm 3 mps 717 mmHg 8%
    10:00 +37°C° 0 mm 2 mps 717 mmHg 6%
    11:00 +38°C° 0 mm 2 mps 717 mmHg 5%
    12:00 +40°C° 0 mm 1 mps 716 mmHg 4%
    13:00 +42°C° 0 mm 1 mps 716 mmHg 4%
    14:00 +42°C° 0 mm 1 mps 716 mmHg 3%
    15:00 +42°C° 0 mm 1 mps 715 mmHg 3%
    16:00 +43°C° 0 mm 2 mps 715 mmHg 3%
    17:00 +40°C° 0 mm 2 mps 715 mmHg 4%
    18:00 +37°C° 0 mm 3 mps 715 mmHg 5%
    19:00 +33°C° 0 mm 3 mps 714 mmHg 6%
    20:00 +33°C° 0 mm 3 mps 714 mmHg 6%
    21:00 +31°C° 0 mm 3 mps 714 mmHg 7%
    22:00 +30°C° 0 mm 3 mps 714 mmHg 8%
    23:00 +29°C° 0 mm 3 mps 714 mmHg 11%

    Tomorrow, 20 September, Friday

    Time Temperature Precipitation Wind Pressure Humidity
    00:00 +28°C° 0 mm 3 mps 713 mmHg 13%
    01:00 +27°C° 0 mm 3 mps 713 mmHg 15%
    02:00 +27°C° 0 mm 3 mps 713 mmHg 15%
    03:00 +26°C° 0 mm 4 mps 713 mmHg 15%
    04:00 +25°C° 0 mm 4 mps 713 mmHg 16%
    05:00 +26°C° 0 mm 4 mps 713 mmHg 14%
    06:00 +27°C° 0 mm 4 mps 714 mmHg 13%
    07:00 +28°C° 0 mm 4 mps 714 mmHg 12%
    08:00 +31°C° 0 mm 3 mps 715 mmHg 10%
    09:00 +35°C° 0 mm 3 mps 715 mmHg 9%
    10:00 +38°C° 0 mm 3 mps 715 mmHg 7%
    11:00 +40°C° 0 mm 3 mps 715 mmHg 6%
    12:00 +42°C° 0 mm 3 mps 715 mmHg 5%
    13:00 +43°C° 0 mm 2 mps 714 mmHg 4%
    14:00 +43°C° 0 mm 2 mps 714 mmHg 4%
    15:00 +45°C° 0 mm 2 mps 714 mmHg 4%
    16:00 +45°C° 0 mm 3 mps 713 mmHg 4%
    17:00 +40°C° 0 mm 2 mps 713 mmHg 5%
    18:00 +37°C° 0 mm 2 mps 713 mmHg 6%
    19:00 +32°C° 0 mm 2 mps 713 mmHg 7%
    20:00 +33°C° 0 mm 3 mps 713 mmHg 8%
    21:00 +31°C° 0 mm 3 mps 713 mmHg 9%
    22:00 +32°C° 0 mm 4 mps 713 mmHg 9%
    23:00 +30°C° 0 mm 4 mps 713 mmHg 11%

    Day after tomorrow, 21 September, Saturday

    Time Temperature Precipitation Wind Pressure Humidity
    00:00 +29°C° 0 mm 4 mps 713 mmHg 13%
    01:00 +27°C° 0 mm 4 mps 712 mmHg 15%
    02:00 +27°C° 0 mm 4 mps 712 mmHg 15%
    03:00 +26°C° 0 mm 4 mps 712 mmHg 16%
    04:00 +25°C° 0 mm 3 mps 712 mmHg 17%
    05:00 +26°C° 0 mm 3 mps 713 mmHg 16%
    06:00 +27°C° 0 mm 3 mps 713 mmHg 14%
    07:00 +28°C° 0 mm 2 mps 714 mmHg 13%
    08:00 +31°C° 0 mm 2 mps 714 mmHg 11%
    09:00 +35°C° 0 mm 2 mps 714 mmHg 9%
    10:00 +38°C° 0 mm 2 mps 715 mmHg 7%
    11:00 +39°C° 0 mm 2 mps 714 mmHg 6%
    12:00 +41°C° 0 mm 2 mps 714 mmHg 5%
    13:00 +42°C° 0 mm 1 mps 714 mmHg 5%
    14:00 +43°C° 0 mm 1 mps 713 mmHg 5%
    15:00 +43°C° 0 mm 1 mps 713 mmHg 5%
    16:00 +43°C° 0 mm 1 mps 713 mmHg 5%
    17:00 +39°C° 0 mm 1 mps 712 mmHg 6%
    18:00 +35°C° 0 mm 1 mps 712 mmHg 7%
    19:00 +31°C° 0 mm 1 mps 712 mmHg 9%
    20:00 +31°C° 0 mm 1 mps 712 mmHg 9%
    21:00 +30°C° 0 mm 2 mps 712 mmHg 10%
    22:00 +29°C° 0 mm 2 mps 712 mmHg 10%
    23:00 +29°C° 0 mm 1 mps 712 mmHg 11%

    22 September, Sunday

    Time Temperature Precipitation Wind Pressure Humidity
    00:00 +28°C° 0 mm 1 mps 712 mmHg 12%
    01:00 +27°C° 0 mm 1 mps 712 mmHg 13%
    02:00 +26°C° 0 mm 1 mps 712 mmHg 14%
    03:00 +25°C° 0 mm 1 mps 712 mmHg 16%
    04:00 +24°C° 0 mm 1 mps 712 mmHg 17%
    05:00 +26°C° 0 mm 1 mps 713 mmHg 15%
    06:00 +28°C° 0 mm 1 mps 713 mmHg 14%
    07:00 +29°C° 0 mm 1 mps 714 mmHg 12%
    08:00 +32°C° 0 mm 1 mps 715 mmHg 10%
    09:00 +35°C° 0 mm 1 mps 715 mmHg 8%
    10:00 +40°C° 0 mm 2 mps 716 mmHg 6%
    11:00 +41°C° 0 mm 2 mps 715 mmHg 6%
    12:00 +42°C° 0 mm 2 mps 715 mmHg 5%
    13:00 +45°C° 0 mm 2 mps 714 mmHg 4%
    14:00 +44°C° 0 mm 1 mps 714 mmHg 4%
    15:00 +44°C° 0 mm 1 mps 714 mmHg 4%
    16:00 +44°C° 0 mm 1 mps 714 mmHg 3%
    17:00 +40°C° 0 mm 1 mps 714 mmHg 5%
    18:00 +36°C° 0 mm 2 mps 713 mmHg 7%
    19:00 +31°C° 0 mm 2 mps 713 mmHg 8%
    20:00 +30°C° 0 mm 4 mps 714 mmHg 16%
    21:00 +30°C° 0 mm 7 mps 714 mmHg 24%
    22:00 +29°C° 0 mm 9 mps 715 mmHg 32%
    23:00 +28°C° 0 mm 9 mps 715 mmHg 34%

    23 September, Monday

    Time Temperature Precipitation Wind Pressure Humidity
    00:00 +27°C° 0 mm 9 mps 715 mmHg 36%
    01:00 +24°C° 0 mm 10 mps 715 mmHg 38%
    02:00 +23°C° 0 mm 9 mps 715 mmHg 39%
    03:00 +22°C° 0 mm 8 mps 715 mmHg 40%
    04:00 +22°C° 0 mm 7 mps 715 mmHg 41%
    05:00 +22°C° 0 mm 6 mps 716 mmHg 40%
    06:00 +22°C° 0 mm 6 mps 716 mmHg 40%
    07:00 +22°C° 0 mm 5 mps 717 mmHg 39%
    08:00 +25°C° 0 mm 4 mps 717 mmHg 34%
    09:00 +28°C° 0 mm 4 mps 717 mmHg 29%
    10:00 +30°C° 0 mm 4 mps 718 mmHg 24%
    11:00 +34°C° 0 mm 3 mps 717 mmHg 20%
    12:00 +36°C° 0 mm 2 mps 717 mmHg 17%
    13:00 +38°C° 0 mm 2 mps 716 mmHg 14%
    14:00 +39°C° 0 mm 1 mps 716 mmHg 12%
    15:00 +39°C° 0 mm 1 mps 715 mmHg 11%
    16:00 +37°C° 0 mm 0 mps 715 mmHg 9%
    17:00 +33°C° 0 mm 0 mps 715 mmHg 13%
    18:00 +30°C° 0 mm 0 mps 714 mmHg 16%
    19:00 +26°C° 0 mm 0 mps 714 mmHg 19%
    20:00 +27°C° 0 mm 1 mps 714 mmHg 20%
    21:00 +27°C° 0 mm 1 mps 714 mmHg 20%
    22:00 +27°C° 0 mm 2 mps 715 mmHg 20%
    23:00 +27°C° 0 mm 2 mps 715 mmHg 21%

    24 September, Tuesday

    Time Temperature Precipitation Wind Pressure Humidity
    00:00 +27°C° 0 mm 3 mps 715 mmHg 22%
    01:00 +27°C° 0 mm 3 mps 714 mmHg 23%
    02:00 +26°C° 0 mm 3 mps 715 mmHg 26%
    03:00 +25°C° 0 mm 4 mps 715 mmHg 29%
    04:00 +23°C° 0 mm 4 mps 715 mmHg 32%
    05:00 +25°C° 0 mm 4 mps 715 mmHg 31%
    06:00 +25°C° 0 mm 4 mps 716 mmHg 31%
    07:00 +26°C° 0 mm 4 mps 716 mmHg 31%
    08:00 +28°C° 0 mm 4 mps 717 mmHg 26%
    09:00 +32°C° 0 mm 4 mps 717 mmHg 21%
    10:00 +35°C° 0 mm 3 mps 718 mmHg 17%
    11:00 +37°C° 0 mm 3 mps 717 mmHg 14%
    12:00 +39°C° 0 mm 2 mps 717 mmHg 12%
    13:00 +41°C° 0 mm 2 mps 716 mmHg 9%
    14:00 +42°C° 0 mm 2 mps 716 mmHg 9%
    15:00 +42°C° 0 mm 2 mps 716 mmHg 8%
    16:00 +43°C° 0 mm 2 mps 715 mmHg 7%
    17:00 +40°C° 0 mm 3 mps 715 mmHg 10%
    18:00 +37°C° 0 mm 4 mps 715 mmHg 12%
    19:00 +34°C° 0 mm 5 mps 715 mmHg 14%
    20:00 +33°C° 0 mm 5 mps 715 mmHg 16%
    21:00 +32°C° 0 mm 6 mps 715 mmHg 17%
    22:00 +29°C° 0 mm 6 mps 716 mmHg 18%
    23:00 +29°C° 0 mm 6 mps 715 mmHg 19%
    Show more